Weather History for KADF - December, 2013

Change the Weather History Date:

Tuesday, December 31, 2013

  Actual Average Record
Temperature  
Mean Temperature 37 °F -  
Max Temperature 50 °F - - ()
Min Temperature 24 °F - - ()
Degree Days  
Heating Degree Days 28    
Moisture  
Dew Point 29 °F    
Average Humidity 84    
Maximum Humidity 100    
Minimum Humidity 47    
Precipitation  
Precipitation 0.00 in - - ()
Sea Level Pressure  
Sea Level Pressure 30.45 in    
Wind  
Wind Speed 1 mph (SSE)    
Max Wind Speed 6 mph    
Max Gust Speed -    
Visibility 9 miles    
Events      
Averages and records for this station are not official NWS values.
T = Trace of Precipitation, MM = Missing Value Source: NWS Daily Summary

Daily Weather History Graph

Daily Weather History Graph

Search for Another Location

Airport or City:

Trip Planner

Search our weather history database for the weather conditions in past years. The results will help you decide how hot, cold, wet, or windy it might be!

Date:

Astronomy

Dec. 31, 2013 Rise Set
Actual Time 7:17 AM CST 5:13 PM CST
Civil Twilight 6:50 AM CST 5:40 PM CST
Nautical Twilight 6:18 AM CST 6:12 PM CST
Astronomical Twilight 5:48 AM CST 6:42 PM CST
Moon 6:13 AM CST (12/31) 4:47 PM CST (12/31)
Length of Visible Light 10h 50m
Length of Day
9h 55m
Waning Crescent, 1% of the Moon is Illuminated
Dec 31
Waning Crescent
Jan 1
New
Jan 7
First Quarter
Jan 15
Full
Jan 23
Last Quarter

Hourly Weather History & Observations

Time (CST) Temp. Windchill Dew Point Humidity Pressure Visibility Wind Dir Wind Speed Gust Speed Precip Events Conditions
12:56 AM 27.1 °F - 26.1 °F 96% 30.45 in 7.0 mi Calm Calm - N/A   Clear
1:56 AM 26.1 °F - 25.2 °F 96% 30.47 in 8.0 mi Calm Calm - N/A   Clear
2:56 AM 26.1 °F - 25.2 °F 96% 30.46 in 8.0 mi Calm Calm - N/A   Clear
3:56 AM 25.2 °F - 24.1 °F 96% 30.45 in 8.0 mi Calm Calm - N/A   Clear
4:56 AM 24.1 °F - 23.0 °F 96% 30.47 in 8.0 mi Calm Calm - N/A   Clear
5:56 AM 24.1 °F - 23.0 °F 96% 30.49 in 9.0 mi Calm Calm - N/A   Clear
6:56 AM 24.1 °F - 23.0 °F 96% 30.50 in 9.0 mi Calm Calm - N/A   Clear
7:56 AM 24.1 °F - 23.0 °F 96% 30.52 in 7.0 mi Calm Calm - N/A   Clear
8:56 AM 28.0 °F 24.2 °F 27.1 °F 96% 30.54 in 6.0 mi South 3.5 mph - N/A   Clear
9:41 AM 30.2 °F 26.7 °F 28.4 °F 93% 30.49 in 7.0 mi Variable 3.5 mph - N/A   Partly Cloudy
9:56 AM 32.0 °F - 29.1 °F 89% 30.54 in 7.0 mi Calm Calm - N/A   Partly Cloudy
10:56 AM 37.9 °F 35.5 °F 31.1 °F 76% 30.53 in 10.0 mi South 3.5 mph - N/A   Clear
11:56 AM 43.9 °F 40.5 °F 30.0 °F 58% 30.52 in 10.0 mi South 5.8 mph - N/A   Clear
12:56 PM 45.9 °F 44.6 °F 31.1 °F 56% 30.47 in 10.0 mi SSE 3.5 mph - N/A   Clear
1:56 PM 48.9 °F - 32.0 °F 52% 30.45 in 10.0 mi Calm Calm - N/A   Clear
2:56 PM 50.9 °F - 31.1 °F 47% 30.42 in 10.0 mi SE 5.8 mph - N/A   Clear
3:56 PM 50.0 °F - 32.0 °F 50% 30.41 in 10.0 mi South 3.5 mph - N/A   Clear
4:56 PM 47.8 °F - 32.9 °F 56% 30.41 in 10.0 mi Calm Calm - N/A   Clear
5:56 PM 38.8 °F - 34.9 °F 86% 30.40 in 10.0 mi Calm Calm - N/A   Clear
6:56 PM 34.9 °F - 32.9 °F 92% 30.40 in 10.0 mi Calm Calm - N/A   Clear
7:56 PM 34.0 °F - 32.0 °F 92% 30.41 in 10.0 mi Calm Calm - N/A   Clear
8:56 PM 32.9 °F - 32.0 °F 96% 30.40 in 10.0 mi Calm Calm - N/A   Clear
9:56 PM 31.1 °F - 30.0 °F 96% 30.39 in 10.0 mi Calm Calm - N/A   Clear
10:56 PM 29.1 °F - 28.0 °F 96% 30.37 in 9.0 mi Calm Calm - N/A   Clear
11:56 PM 27.1 °F - 27.1 °F 100% 30.36 in 10.0 mi Calm Calm - N/A   Clear